AQI (46)

Current Conditions for Foresthill, CA. Clear skies, Dry   
Visibility: 10 miles
Space WX Alerts: WARNING:  Geomagnetic K-index of 4 expected ( Latest Alert ) - Issue Time: 2019 Jul 21 2308 UTC

  Summary / Temperature 

Current Temperature
71.3°F
21.8°C
(24/hr Ago)
70.5°F
(Apparent temp)
69.3°F
Comfortable
Heat Index
71.9°F 

73.8°F/ 23.2°C
 --- Virtual Temp: 74.1°F ---

 Temp Rate:

 24/hr Difference:

 Avg Running Temp:

 Todays High:

 Todays Low:

 Y-days High:

 Y-days Low:

 Todays HeatIdx:

 Y-days HeatIdx:

 Evapotranspiration:

-0.4°F/hr 

+0.8°F

71.7°F

72.2°F 12:00am

71.3°F 2:02am

87.5°F 2:01pm

69.8°F 2:44am

72.5°F 12:00am

86.9°F 1:12pm

0.004 in

115' Above Ground

 Temperature:

 6'AGL VRS 115'AGL:

 Avg Running Temp:

 Humidity:

 Todays High:

 Todays Low:

 Y-days High:

 Y-days Low:

74.0°F 

+2.7°F

74.2°F

44% 

74.0°F 12:00am

73.0°F 2:03am

87.0°F 3:40pm

71.0°F 1:39am

Temp & Humidity Graphs

  Wind 

Wind Speed

 2.0 mph

Gusting to

 13.0 mph

Wind from ESE

109°  ESE

Light air

 Avg speed:

 Wind Run:

 Peak Gust:

  4.0 mph 

8.0 miles

  18.0 mph 12:07am

  Almanac  

Moon age: 21 days,12 hours,24 minutes,57%

Waning Gibbous
57%
Illuminated
21 days in cycle

 Moonrise:

 Moonset:

 Sunrise:

 Sunset:

 Solar Noon:

12:15am

1:09pm

5:58am

8:23pm

1:10pm

1min 38s less daylight tomorrow 

  Solar Radiation 

(Current Solar)
  No Sun Light
(Todays High)
 None@12:00am

Rain

 Rain Today:

 Rain Rate (/hr):

 Rain last hour:

 Rain Yesterday:

 This Month:

 Season Total:

51 Days Since Last Rain Day

0.00 in

0.000 in

0.00 in

0.00 in

0.00 in

0.00 in

Updated Time

Updated: 7/24/19  2:06am

(Updated  sec ago)

Humidity & Barometer

 Humidity:

 Wetbulb:

 Dew Point:

 Barometer:

48% 

59.8°F 

50.6°F 

29.967 inHg 

 Baro Trend:  Steady 
Northern Calif
Preparedness
Fire 
Level 

    UV Index  

(Current UV)
0.0  None
(Todays High) @ 12:00am
0.0   None

National Weather Service Forecast

Overnight

Overnight: Clear
Clear
Wednesday

Wednesday: Sunny
Sunny
Wednesday
Night
Wednesday Night: Mostly Clear
Mostly Clear
Thursday

Thursday: Mostly Sunny
Mostly Sunny
Thursday
Night
Thursday Night: Partly Cloudy
Partly Cloudy
Friday

Friday: Mostly Sunny
Mostly Sunny
Lo 67 °F Hi 91 °F Lo 69 °F Hi 91 °F Lo 70 °F Hi 89 °F

Foresthill Probe 2 Stats  
Foresthill Probe 2: is located on Thomas Street
at 3000 feet. The main Foresthill Weather site
is located on Melody ln at the 2860 foot elevation

Calm
71.1°F
21.7°C
Temp Rate:
-0.2°F
Calm
Gusting to
2.0 mph
(Humidity)
49%
Wind from ESE
117°  ESE
Updated: 24/07/19 - 02:01:48
 Todays High: 71.1°F 01:06
 Todays Low: 70.5°F 00:03
 Rain Today: 0.00 in
 Season Total: 0.00 in

Foresthill Wx: Monthly,Yearly, Highs and Lows 

Foresthill  
This Weather Data is coming from the main Foresthill
Weather site located on Melody ln at the 2860 foot
elevation
Not Foresthill Probe 2
Weather Data
Month
  High
Month
  Low
Year
High
Year
Low
Temp 89.4°F
7/22/19
58.4°F
7/9/19
89.4°F
7/22/19
24.5°F
2/18/19
Humidity 77%
7/17/19
20%
7/14/19
100%
1/9/19
14%
4/22/19
Heat Index 88.7°F
7/22/19
59.0°F
7/9/19
88.7°F
7/22/19
30.1°F
2/22/19
Wind Chill 89.4°F
7/22/19
55.4°F
7/9/19
89.4°F
7/22/19
11.5°F
2/11/19
Wind Gust 20 mph
7/7/19
0 mph
7/1/19
48 mph
2/27/19
0 mph
1/1/19
Barometer 30.07 in
7/10/19
29.81 in
7/19/19
30.54 in
1/23/19
29.37 in
2/14/19
ET 0.24 in
7/14/19
0.00 in
7/1/19
0.27 in
6/9/19
0.00 in
1/1/19
Dew Point 63.7°F
7/23/19
35.5°F
7/1/19
66.8°F
6/17/19
7.7°F
1/1/19
Pacific Satellite US Radar Satellite Imagery Sacramento,CA.  (click to enlarge)
NWS Weather Forecast - Summary
Updated: Tuesday, July 23, 2019 - 3:39pm PDT
Current Interstate Highway Conditions for I-80 & US-50
N/A
N/A
NWS Weather Forecast: Overnight and Wednesday (Updated: Wed, 24-Jul-2019 1:37am PDT)
Overnight

Overnight: Clear
Clear

Lo 67 °F
NWS forecast: Clear, with a low around 67. East wind around 8 mph.
Wednesday

Wednesday: Sunny
Sunny

Hi 91 °F
NWS forecast: Sunny, with a high near 91. South southwest wind 5 to 8 mph.
YR.NO 10 Day Weather forecast
Last update: 07/23/2019 @ 12:36
Next update: 07/24/2019 @ 01:00
Provided by: 22
      Temperature Precipitation Pressure Wind  
Today
07/24/2019
01:00 06:00 64°F   30.01 inHg Light breeze from east-northeast 4 mph
  06:00 12:00 63°F   29.99 inHg Light breeze from east-northeast 6 mph
  12:00 18:00 90°F   29.99 inHg Light breeze from southwest 7 mph
  18:00 00:00 90°F   29.91 inHg Light breeze from southwest 6 mph
    (Click to enlarge)
meteogram

    Forecast for next 9 days

      Temperature Precip Pressure Wind  
Thursday
07/25/2019
00:00 06:00 66°F   29.94 inHg Light breeze from east-northeast 4 mph
  06:00 12:00 63°F   29.91 inHg Light breeze from east-northeast 5 mph
  12:00 18:00 93°F   29.92 inHg Light breeze from southwest 7 mph
  18:00 00:00 90°F   29.87 inHg Light breeze from southwest 6 mph
      Temperature Precip Pressure Wind  
Friday
07/26/2019
00:00 06:00 72°F   29.91 inHg Light air from east 2 mph
  05:00 11:00 64°F   29.90 inHg Light breeze from east-northeast 5 mph
  11:00 17:00 88°F   29.97 inHg Light breeze from southwest 7 mph
  17:00 23:00 90°F   29.92 inHg Light breeze from southwest 6 mph
  23:00 05:00 72°F   29.95 inHg Light air from east-northeast 2 mph
      Temperature Precip Pressure Wind  
Saturday
07/27/2019
05:00 11:00 64°F   29.95 inHg Light breeze from east-northeast 6 mph
  11:00 17:00 93°F   29.96 inHg Light breeze from west-southwest 6 mph
  17:00 23:00 95°F   29.89 inHg Light breeze from west 6 mph
  23:00 05:00 73°F   29.92 inHg Light air from east-northeast 3 mph
      Temperature Precip Pressure Wind  
Sunday
07/28/2019
05:00 11:00 64°F   29.90 inHg Light breeze from east-northeast 6 mph
  11:00 17:00 95°F   29.91 inHg Light breeze from west-southwest 5 mph
  17:00 23:00 97°F   29.84 inHg Light breeze from southwest 7 mph
  23:00 05:00 77°F   29.88 inHg Light breeze from east 6 mph
      Temperature Precip Pressure Wind  
Monday
07/29/2019
05:00 11:00 68°F   29.84 inHg Light breeze from east-northeast 6 mph
  11:00 17:00 91°F   29.87 inHg Light breeze from southwest 7 mph
  17:00 23:00 91°F   29.83 inHg Gentle breeze from south-southwest 8 mph
  23:00 05:00 70°F   29.86 inHg Light breeze from east-southeast 5 mph
      Temperature Precip Pressure Wind  
Tuesday
07/30/2019
05:00 11:00 59°F   29.85 inHg Light breeze from east 5 mph
  11:00 17:00 86°F   29.91 inHg Light breeze from southwest 6 mph
  17:00 23:00 88°F   29.86 inHg Light breeze from southwest 6 mph
  23:00 05:00 66°F   29.89 inHg Light breeze from east-northeast 4 mph
      Temperature Precip Pressure Wind  
Wednesday
07/31/2019
05:00 11:00 57°F   29.88 inHg Light breeze from east-northeast 6 mph
  11:00 17:00 88°F   29.90 inHg Light breeze from southwest 6 mph
  17:00 23:00 90°F   29.84 inHg Light breeze from southwest 7 mph
  23:00 05:00 66°F   29.87 inHg Light breeze from east 5 mph
      Temperature Precip Pressure Wind  
Thursday
08/01/2019
05:00 11:00 59°F   29.84 inHg Light breeze from east-northeast 6 mph
  11:00 17:00 88°F   29.86 inHg Light breeze from southwest 7 mph
  17:00 23:00 88°F   29.79 inHg Light breeze from southwest 6 mph
  23:00 05:00 66°F   29.82 inHg Light breeze from east 4 mph
How Close Are We To this Month's Temperature Record ?
Updated Wednesday, Jul 24, 2019- 2:00:00 AM

Current Temperature: 71.3°F

July's High: Temperature Record 98.1°F - Set on Wed, Jul 29, 2015 - 2:57:00 PM
We are currently 26.8°F Less than this Month's record High

July's Low: Temperature Record 51.4°F - Set on Sun, Jul 10, 2016 - 7:04:00 AM
We are currently 19.9°F More than this Month's record Low

Weather History For Wednesday, July 24, 2019


On this Day - In Weather History ...
Data courtesy of weatherforyou.com
powered by Cumulus v1.9.3 (1059)
Ambient Weather VWS v14.00
Top Contact Website Map Copyright © 2007 - 2019 Foresthillweather.com Never base important decisions on this or any weather information obtained from the Internet